| time (UTC) | temp F | wind direction | speed MPH | gust MPH | rain 1hr in | rain 24hr in | rain mn in | humidity % | barometer mb |
| 20260506014503 | 60 | 233 | 6.0 | 13.0 | 0.00 | 0.00 | 0.00 | 80 | 1011.6 |
| 20260506013003 | 60 | 161 | 10.0 | 21.0 | 0.00 | 0.00 | 0.00 | 79 | 1011.4 |
| 20260506011501 | 60 | 250 | 7.0 | 18.0 | 0.00 | 0.00 | 0.00 | 78 | 1011.2 |
| 20260506010004 | 60 | 246 | 6.0 | 17.0 | 0.00 | 0.00 | 0.00 | 78 | 1011.0 |
| 20260506004631 | 61 | 29 | 8.0 | 16.0 | 0.00 | 0.00 | 0.00 | 77 | 1010.9 |
| 20260506003113 | 62 | 242 | 6.0 | 17.0 | 0.00 | 0.00 | 0.00 | 75 | 1010.8 |
| 20260506001559 | 61 | 257 | 9.0 | 26.0 | 0.00 | 0.00 | 0.00 | 75 | 1010.6 |
| 20260506000058 | 62 | 136 | 6.0 | 20.0 | 0.00 | 0.00 | 0.00 | 75 | 1010.3 |
| 20260505234635 | 62 | 254 | 5.0 | 20.0 | 0.00 | 0.00 | 0.00 | 75 | 1010.2 |
| 20260505233105 | 62 | 124 | 7.0 | 21.0 | 0.00 | 0.00 | 0.00 | 75 | 1009.8 |
| 20260505231559 | 62 | 113 | 8.0 | 18.0 | 0.00 | 0.00 | 0.00 | 75 | 1009.6 |
| 20260505230054 | 62 | 245 | 7.0 | 17.0 | 0.00 | 0.00 | 0.00 | 74 | 1009.5 |
| 20260505224553 | 62 | 228 | 9.0 | 18.0 | 0.00 | 0.00 | 0.00 | 74 | 1009.5 |
| 20260505223052 | 62 | 134 | 10.0 | 24.0 | 0.00 | 0.00 | 0.00 | 73 | 1009.3 |
| 20260505221551 | 63 | 185 | 8.0 | 30.0 | 0.00 | 0.00 | 0.00 | 72 | 1009.5 |
| 20260505214556 | 64 | 238 | 9.0 | 36.0 | 0.00 | 0.00 | 0.00 | 71 | 1009.3 |
| 20260505213052 | 65 | 130 | 6.0 | 16.0 | 0.00 | 0.00 | 0.00 | 71 | 1008.9 |
| 20260505211552 | 65 | 120 | 8.0 | 23.0 | 0.00 | 0.00 | 0.00 | 71 | 1008.8 |
| 20260505210046 | 65 | 208 | 8.0 | 17.0 | 0.00 | 0.00 | 0.00 | 70 | 1008.9 |
| 20260505204547 | 65 | 241 | 8.0 | 18.0 | 0.00 | 0.00 | 0.00 | 70 | 1008.9 |
| 20260505203043 | 66 | 243 | 6.0 | 17.0 | 0.00 | 0.00 | 0.00 | 69 | 1009.0 |
| 20260505201542 | 66 | 239 | 3.0 | 17.0 | 0.00 | 0.00 | 0.00 | 70 | 1009.1 |
| 20260505200041 | 67 | 316 | 5.0 | 11.0 | 0.00 | 0.00 | 0.00 | 69 | 1009.3 |
| 20260505194542 | 66 | 186 | 5.0 | 18.0 | 0.00 | 0.00 | 0.00 | 70 | 1009.6 |
| 20260505193043 | 66 | 174 | 9.0 | 16.0 | 0.00 | 0.00 | 0.00 | 69 | 1009.8 |
| 20260505191549 | 66 | 178 | 7.0 | 18.0 | 0.00 | 0.00 | 0.00 | 70 | 1010.0 |
| 20260505190033 | 66 | 195 | 6.0 | 16.0 | 0.00 | 0.00 | 0.00 | 71 | 1010.3 |
| 20260505184532 | 66 | 198 | 6.0 | 16.0 | 0.00 | 0.00 | 0.00 | 71 | 1010.5 |
| 20260505183030 | 66 | 176 | 6.0 | 15.0 | 0.00 | 0.00 | 0.00 | 71 | 1010.7 |
| 20260505181529 | 66 | 198 | 7.0 | 17.0 | 0.00 | 0.00 | 0.00 | 72 | 1010.8 |
| 20260505180042 | 65 | 94 | 6.0 | 17.0 | 0.00 | 0.00 | 0.00 | 72 | 1010.9 |
| 20260505174536 | 66 | 88 | 5.0 | 16.0 | 0.00 | 0.00 | 0.00 | 73 | 1010.9 |
| 20260505173026 | 66 | 200 | 6.0 | 15.0 | 0.00 | 0.00 | 0.00 | 72 | 1011.0 |
| 20260505171531 | 66 | 178 | 4.0 | 12.0 | 0.00 | 0.00 | 0.00 | 73 | 1011.1 |
| 20260505170031 | 66 | 164 | 6.0 | 13.0 | 0.00 | 0.00 | 0.00 | 71 | 1011.2 |
| 20260505164523 | 67 | 230 | 4.0 | 11.0 | 0.00 | 0.00 | 0.00 | 70 | 1011.3 |
| 20260505163022 | 68 | 235 | 4.0 | 10.0 | 0.00 | 0.00 | 0.00 | 71 | 1011.4 |
| 20260505161521 | 68 | 167 | 3.0 | 9.0 | 0.00 | 0.00 | 0.00 | 70 | 1011.6 |
| 20260505153022 | 67 | 130 | 3.0 | 8.0 | 0.00 | 0.00 | 0.00 | 70 | 1011.7 |
| 20260505151513 | 67 | 164 | 3.0 | 8.0 | 0.00 | 0.00 | 0.00 | 71 | 1012.0 |
| 20260505124551 | 61 | 223 | 2.0 | 7.0 | 0.00 | 0.00 | 0.00 | 81 | 1011.7 |
| 20260505123106 | 60 | 194 | 2.0 | 9.0 | 0.00 | 0.00 | 0.00 | 84 | 1011.7 |
| 20260505121546 | 59 | 82 | 1.0 | 4.0 | 0.00 | 0.00 | 0.00 | 85 | 1011.6 |
| 20260505120046 | 58 | 94 | 1.0 | 5.0 | 0.00 | 0.00 | 0.00 | 87 | 1011.8 |
| 20260505114556 | 57 | 229 | 1.0 | 3.0 | 0.00 | 0.00 | 0.00 | 89 | 1011.8 |
| 20260505113040 | 56 | 258 | 0.0 | 3.0 | 0.00 | 0.00 | 0.00 | 89 | 1011.8 |
| 20260505111552 | 56 | 240 | 1.0 | 4.0 | 0.00 | 0.00 | 0.00 | 91 | 1011.8 |
| 20260505101533 | 53 | 239 | 1.0 | 7.0 | 0.00 | 0.00 | 0.00 | 94 | 1011.1 |
| 20260505100033 | 52 | 238 | 1.0 | 3.0 | 0.00 | 0.00 | 0.00 | 94 | 1010.8 |
| 20260505094524 | 52 | 246 | 0.0 | 2.0 | 0.00 | 0.00 | 0.00 | 94 | 1010.6 |
| 20260505093027 | 52 | 245 | 1.0 | 3.0 | 0.00 | 0.00 | 0.00 | 93 | 1010.7 |
| 20260505091523 | 52 | 257 | 0.0 | 4.0 | 0.00 | 0.00 | 0.00 | 93 | 1010.8 |
| 20260505090020 | 52 | 257 | 0.0 | 4.0 | 0.00 | 0.00 | 0.00 | 93 | 1010.8 |
| 20260505084520 | 52 | 247 | 0.0 | 3.0 | 0.00 | 0.00 | 0.00 | 93 | 1010.7 |
| 20260505083020 | 53 | 246 | 1.0 | 5.0 | 0.00 | 0.00 | 0.00 | 92 | 1010.8 |
| 20260505081521 | 53 | 233 | 2.0 | 7.0 | 0.00 | 0.00 | 0.00 | 92 | 1010.9 |
| 20260505080028 | 53 | 238 | 1.0 | 5.0 | 0.00 | 0.00 | 0.00 | 92 | 1010.9 |
| 20260505074513 | 53 | 237 | 0.0 | 4.0 | 0.00 | 0.00 | 0.00 | 92 | 1010.7 |
| 20260505073015 | 53 | 252 | 0.0 | 5.0 | 0.00 | 0.00 | 0.00 | 92 | 1010.8 |
| 20260505071510 | 53 | 215 | 1.0 | 4.0 | 0.00 | 0.00 | 0.00 | 91 | 1010.8 |
| 20260505070009 | 53 | 214 | 1.0 | 5.0 | 0.00 | 0.00 | 0.00 | 91 | 1010.9 |
| 20260505064508 | 53 | 239 | 2.0 | 6.0 | 0.00 | 0.00 | 0.00 | 91 | 1010.8 |
| 20260505063006 | 53 | 242 | 2.0 | 6.0 | 0.00 | 0.00 | 0.00 | 91 | 1010.8 |
| 20260505061505 | 53 | 209 | 2.0 | 9.0 | 0.00 | 0.00 | 0.00 | 91 | 1011.1 |
| 20260505060003 | 53 | 233 | 1.0 | 9.0 | 0.00 | 0.00 | 0.00 | 90 | 1011.1 |
| 20260505054502 | 53 | 323 | 3.0 | 9.0 | 0.00 | 0.00 | 0.00 | 90 | 1011.2 |
| 20260505053112 | 53 | 258 | 3.0 | 5.0 | 0.00 | 0.00 | 0.00 | 90 | 1011.2 |
| 20260505051559 | 53 | 231 | 3.0 | 7.0 | 0.00 | 0.00 | 0.00 | 90 | 1011.3 |
| 20260505041610 | 54 | 247 | 2.0 | 5.0 | 0.00 | 0.00 | 0.00 | 87 | 1011.6 |
| 20260505040047 | 54 | 243 | 1.0 | 6.0 | 0.00 | 0.00 | 0.00 | 86 | 1011.7 |
| 20260505034547 | 54 | 150 | 1.0 | 7.0 | 0.00 | 0.00 | 0.00 | 86 | 1011.6 |
| 20260505033045 | 54 | 246 | 1.0 | 6.0 | 0.00 | 0.00 | 0.00 | 85 | 1011.7 |
| 20260505031543 | 55 | 259 | 2.0 | 6.0 | 0.00 | 0.00 | 0.00 | 84 | 1011.7 |
| 20260505030044 | 55 | 205 | 2.0 | 5.0 | 0.00 | 0.00 | 0.00 | 84 | 1011.7 |
| 20260505024546 | 55 | 253 | 3.0 | 7.0 | 0.00 | 0.00 | 0.00 | 84 | 1011.8 |
| 20260505023047 | 55 | 248 | 2.0 | 6.0 | 0.00 | 0.00 | 0.00 | 84 | 1011.7 |
| 20260505021545 | 55 | 244 | 3.0 | 7.0 | 0.00 | 0.00 | 0.00 | 84 | 1011.8 |
| 20260505020041 | 55 | 240 | 2.0 | 7.0 | 0.00 | 0.00 | 0.00 | 84 | 1011.8 |